QPF
0.00 0.00 0.00 0.00 0.00 0.00 0.00 0.00 0.00 0.00 0.00 0.00 0.00 0.01 0.05 0.07 0.07 0.04 0.00 0.00 0.00 0.00 0.00 0.00 0.00 0.00 0.00 0.00 0.00 0.00 0.00 0.00
0.00 0.00 0.00 0.00 0.00 0.00 0.00 0.00 0.01 0.00 0.00 0.00 0.00 0.02 0.05 0.08 0.03 0.01 0.00 0.00 0.00 0.00 0.00 0.00 0.00 0.00 0.00 0.00 0.00 0.00 0.00 0.00
0.00 0.00 0.00 0.00 0.00 0.00 0.00 0.00 0.00 0.01 0.00 0.00 0.00 0.01 0.03 0.03 0.01 0.00 0.00 0.00 0.00 0.00 0.00 0.00 0.00 0.00 0.00 0.00 0.00 0.00 0.00 0.00
0.00 0.00 0.00 0.00 0.00 0.00 0.00 0.00 0.00 0.00 0.00 0.00 0.00 0.05 0.05 0.02 0.01 0.00 0.00 0.00 0.00 0.00 0.00 0.00 0.00 0.00 0.00 0.00 0.00 0.00 0.00 0.00
0.00 0.00 0.00 0.00 0.00 0.00 0.00 0.00 0.00 0.00 0.01 0.00 0.02 0.06 0.10 0.05 0.00 0.00 0.00 0.00 0.00 0.00 0.00 0.00 0.00 0.00 0.00 0.00 0.00 0.00 0.00 0.00
0.00 0.00 0.00 0.00 0.00 0.00 0.00 0.00 0.00 0.01 0.02 0.03 0.05 0.08 0.10 0.05 0.00 0.00 0.00 0.00 0.00 0.00 0.00 0.00 0.00 0.00 0.00 0.00 0.00 0.00 0.00 0.00
0.00 0.00 0.00 0.00 0.00 0.00 0.00 0.00 0.01 0.05 0.06 0.06 0.09 0.10 0.09 0.03 0.00 0.00 0.00 0.00 0.00 0.00 0.00 0.00 0.00 0.00 0.00 0.00 0.00 0.00 0.00 0.00
0.00 0.00 0.00 0.02 0.02 0.00 0.01 0.01 0.01 0.05 0.06 0.04 0.07 0.09 0.05 0.02 0.00 0.00 0.00 0.00 0.00 0.00 0.00 0.00 0.00 0.01 0.01 0.00 0.00 0.00 0.00 0.00
0.00 0.00 0.00 0.01 0.02 0.02 0.02 0.02 0.02 0.02 0.01 0.04 0.06 0.07 0.04 0.00 0.00 0.00 0.00 0.00 0.00 0.00 0.00 0.01 0.04 0.04 0.00 0.00 0.00 0.00 0.00 0.00
0.00 0.00 0.00 0.01 0.03 0.06 0.03 0.01 0.00 0.00 0.00 0.03 0.06 0.04 0.02 0.02 0.01 0.00 0.00 0.00 0.00 0.00 0.01 0.07 0.06 0.01 0.00 0.00 0.00 0.00 0.00 0.00
0.00 0.00 0.00 0.00 0.01 0.03 0.02 0.02 0.01 0.00 0.01 0.02 0.02 0.03 0.03 0.02 0.02 0.00 0.00 0.00 0.00 0.02 0.07 0.08 0.03 0.00 0.00 0.00 0.00 0.00 0.00 0.00
0.00 0.00 0.00 0.00 0.00 0.01 0.02 0.05 0.02 0.00 0.00 0.01 0.02 0.02 0.01 0.03 0.03 0.01 0.00 0.01 0.04 0.09 0.08 0.01 0.00 0.00 0.00 0.00 0.00 0.00 0.00 0.00
0.00 0.00 0.00 0.00 0.00 0.01 0.02 0.04 0.01 0.00 0.00 0.01 0.03 0.04 0.03 0.02 0.01 0.01 0.05 0.09 0.07 0.01 0.00 0.00 0.00 0.00 0.00 0.00 0.00 0.00 0.00 0.00
0.00 0.00 0.00 0.00 0.00 0.04 0.03 0.04 0.02 0.00 0.02 0.05 0.05 0.04 0.01 0.02 0.07 0.09 0.02 0.00 0.00 0.00 0.00 0.00 0.00 0.00 0.00 0.00 0.00 0.00 0.00 0.00
0.00 0.00 0.00 0.00 0.02 0.06 0.05 0.11 0.06 0.07 0.06 0.06 0.05 0.02 0.03 0.06 0.04 0.02 0.00 0.00 0.00 0.00 0.00 0.00 0.00 0.00 0.00 0.00 0.00 0.00 0.00 0.00
0.00 0.00 0.00 0.00 0.04 0.06 0.07 0.08 0.11 0.11 0.09 0.05 0.04 0.14 0.27 0.20 0.05 0.00 0.01 0.00 0.00 0.00 0.00 0.00 0.00 0.00 0.00 0.00 0.00 0.00 0.00 0.00
0.00 0.00 0.00 0.02 0.07 0.05 0.05 0.08 0.06 0.03 0.02 0.03 0.15 0.22 0.10 0.01 0.00 0.01 0.00 0.00 0.00 0.00 0.00 0.00 0.00 0.00 0.00 0.00 0.00 0.00 0.00 0.00
0.00 0.00 0.00 0.01 0.04 0.03 0.03 0.02 0.01 0.00 0.00 0.01 0.02 0.01 0.00 0.00 0.00 0.00 0.00 0.00 0.00 0.00 0.00 0.00 0.00 0.00 0.00 0.00 0.00 0.00 0.00 0.00
0.00 0.00 0.00 0.00 0.00 0.01 0.01 0.00 0.00 0.00 0.00 0.00 0.00 0.00 0.00 0.00 0.00 0.00 0.00 0.00 0.00 0.00 0.00 0.00 0.00 0.00 0.00 0.00 0.00 0.00 0.00 0.00
MSLP
1016.80 1017.26 1017.76 1018.14 1018.65 1018.95 1019.15 1019.46 1019.77 1020.13 1020.87 1021.40 1021.76 1021.95 1022.33 1022.58 1022.83 1023.15 1023.32 1023.69 1024.15 1024.45 1024.95 1025.52 1025.68 1026.11 1026.58 1026.84 1027.03 1027.29 1027.38 1027.54
1016.31 1016.75 1017.26 1017.78 1018.21 1018.56 1018.79 1019.20 1019.73 1020.25 1020.90 1021.25 1021.78 1022.01 1022.48 1022.76 1022.88 1023.13 1023.49 1023.74 1024.25 1024.45 1024.88 1025.53 1025.90 1026.07 1026.48 1026.80 1027.02 1027.21 1027.51 1027.82
1016.04 1016.48 1016.84 1017.05 1017.29 1017.72 1018.30 1018.73 1019.31 1019.78 1020.12 1020.55 1021.06 1021.69 1022.38 1022.43 1022.80 1023.24 1023.69 1023.89 1023.90 1024.50 1025.10 1025.46 1025.89 1026.14 1026.49 1026.79 1027.09 1027.36 1027.52 1027.84
1015.02 1015.66 1016.14 1016.62 1016.85 1017.12 1017.62 1018.22 1018.76 1019.26 1019.85 1020.41 1021.22 1021.87 1022.58 1022.87 1023.04 1023.37 1023.60 1023.68 1024.16 1024.69 1025.07 1025.50 1025.94 1025.91 1026.43 1026.82 1027.07 1027.17 1027.13 1027.70
1014.16 1014.78 1015.29 1015.66 1016.22 1016.79 1017.31 1018.06 1018.59 1019.15 1019.68 1020.11 1020.58 1021.05 1021.72 1022.30 1022.77 1023.03 1023.37 1023.85 1024.33 1024.68 1025.13 1025.51 1025.82 1026.30 1026.58 1026.83 1027.24 1027.29 1027.09 1027.22
1013.13 1013.80 1014.40 1015.17 1015.93 1016.40 1017.09 1017.76 1018.32 1018.97 1019.37 1019.97 1020.40 1021.04 1021.70 1022.04 1022.70 1022.98 1023.39 1023.94 1024.25 1024.56 1024.80 1025.24 1025.77 1026.18 1026.53 1026.99 1027.27 1027.41 1027.50 1027.44
1011.97 1012.94 1013.80 1014.57 1015.45 1016.15 1016.89 1017.34 1018.01 1018.59 1019.14 1019.76 1020.10 1020.61 1021.37 1021.94 1022.30 1022.73 1023.28 1023.74 1023.96 1024.31 1024.63 1025.36 1025.93 1025.95 1026.97 1027.10 1027.25 1027.38 1027.31 1027.55
1011.22 1012.08 1012.87 1013.88 1014.74 1015.53 1016.28 1016.84 1017.32 1017.90 1018.63 1019.07 1019.78 1020.25 1020.93 1021.45 1021.70 1022.09 1022.78 1023.17 1023.65 1024.23 1024.85 1025.54 1025.51 1026.33 1026.74 1026.99 1027.11 1027.11 1027.21 1027.39
1010.45 1010.88 1011.86 1012.83 1013.76 1014.72 1015.52 1016.03 1016.50 1017.06 1017.90 1018.60 1019.20 1019.78 1020.48 1020.91 1021.11 1021.45 1021.78 1022.29 1023.18 1024.10 1024.71 1025.09 1025.73 1025.97 1026.36 1026.70 1026.90 1026.68 1027.03 1027.33
1009.89 1010.59 1011.28 1012.13 1013.06 1014.07 1014.78 1015.44 1015.96 1016.52 1017.25 1018.02 1018.61 1019.29 1019.82 1020.21 1020.65 1021.17 1021.85 1022.54 1023.32 1024.18 1024.87 1025.67 1025.81 1025.85 1025.92 1026.08 1026.13 1026.56 1026.92 1027.02
1009.81 1010.30 1010.90 1011.50 1012.45 1013.28 1014.19 1014.89 1015.41 1016.09 1016.82 1017.33 1017.95 1018.55 1019.32 1020.08 1020.86 1021.36 1022.07 1022.78 1023.65 1024.51 1025.34 1025.53 1026.29 1025.77 1025.69 1025.91 1026.14 1026.45 1026.62 1026.64
1009.55 1010.16 1010.77 1011.44 1012.17 1012.79 1013.70 1014.53 1015.19 1015.65 1016.28 1016.92 1017.62 1018.39 1019.15 1020.10 1020.76 1021.48 1021.98 1022.84 1023.69 1024.13 1024.74 1024.85 1025.29 1025.37 1025.49 1025.77 1025.93 1026.08 1026.24 1026.39
1009.18 1009.85 1010.60 1011.16 1011.74 1012.59 1013.63 1014.52 1015.09 1015.48 1016.21 1017.06 1017.80 1018.54 1019.31 1020.19 1020.89 1021.35 1022.03 1022.63 1023.16 1023.70 1024.03 1024.28 1024.79 1025.11 1025.34 1025.50 1025.57 1025.71 1025.90 1025.95
1009.28 1009.91 1010.31 1010.89 1011.57 1012.53 1013.55 1014.27 1014.85 1015.65 1016.40 1017.20 1018.12 1018.94 1019.82 1020.19 1021.19 1021.65 1022.19 1023.01 1023.48 1023.83 1023.66 1024.16 1024.55 1024.73 1024.96 1025.11 1025.23 1025.33 1025.36 1025.38
1008.96 1009.46 1010.12 1010.95 1011.71 1012.54 1013.39 1014.10 1015.04 1016.03 1016.61 1017.64 1018.85 1019.73 1020.64 1021.33 1021.96 1022.49 1022.72 1023.17 1023.49 1024.09 1023.85 1024.14 1024.39 1024.49 1024.63 1024.74 1024.83 1024.86 1024.87 1024.87
1009.15 1009.60 1010.28 1011.18 1011.95 1012.75 1013.57 1014.49 1015.50 1016.36 1017.44 1018.53 1019.66 1020.50 1020.91 1021.71 1022.43 1023.15 1023.07 1023.37 1023.57 1023.77 1023.84 1024.20 1024.27 1024.27 1024.31 1024.62 1024.64 1024.58 1024.46 1024.35
1009.35 1010.07 1010.84 1011.71 1012.55 1013.43 1014.58 1015.37 1016.25 1016.96 1017.98 1019.07 1020.16 1020.93 1021.68 1022.15 1022.80 1023.08 1023.43 1023.54 1023.53 1023.65 1023.69 1023.94 1024.05 1024.06 1024.35 1024.61 1024.52 1024.18 1023.91 1023.71
1009.83 1010.54 1011.35 1012.38 1013.17 1014.05 1015.02 1015.90 1016.57 1017.37 1018.48 1019.61 1020.32 1021.05 1021.77 1022.32 1022.77 1023.17 1023.10 1023.44 1023.22 1023.42 1023.61 1023.71 1023.78 1023.83 1024.20 1024.14 1024.04 1023.80 1023.37 1023.04
1010.78 1011.29 1012.11 1012.90 1013.63 1014.45 1015.33 1016.19 1016.99 1017.80 1018.86 1019.84 1020.68 1021.25 1021.84 1022.29 1022.55 1022.82 1023.04 1022.94 1023.15 1023.16 1023.23 1023.46 1023.56 1023.51 1023.72 1023.69 1023.59 1023.27 1022.81 1022.42
Thickness
5616 5613 5612 5611 5612 5612 5614 5614 5614 5613 5607 5603 5602 5603 5602 5601 5599 5597 5597 5595 5591 5589 5584 5578 5575 5569 5562 5555 5552 5546 5541 5536
5623 5622 5620 5617 5616 5615 5617 5616 5613 5610 5605 5604 5601 5600 5598 5596 5596 5595 5593 5591 5588 5584 5578 5571 5566 5561 5555 5549 5543 5538 5531 5523
5626 5624 5623 5623 5624 5622 5620 5619 5615 5613 5612 5608 5605 5601 5596 5596 5593 5591 5588 5588 5586 5577 5569 5564 5557 5553 5547 5539 5532 5526 5521 5513
5635 5631 5630 5628 5629 5627 5625 5621 5619 5616 5612 5607 5601 5597 5591 5589 5588 5586 5583 5583 5575 5568 5562 5556 5549 5544 5536 5529 5523 5518 5514 5504
5642 5638 5636 5635 5633 5630 5627 5620 5617 5614 5610 5607 5603 5600 5595 5589 5586 5583 5579 5572 5565 5560 5554 5546 5540 5532 5525 5519 5511 5507 5503 5498
5647 5643 5640 5635 5631 5628 5624 5619 5615 5611 5609 5605 5602 5596 5589 5585 5579 5577 5571 5563 5558 5553 5548 5539 5531 5524 5517 5508 5500 5494 5488 5484
5657 5650 5643 5638 5632 5627 5622 5619 5614 5611 5606 5602 5600 5595 5586 5579 5577 5572 5565 5558 5552 5546 5539 5530 5521 5517 5504 5496 5489 5483 5478 5470
5659 5652 5646 5641 5635 5629 5624 5620 5616 5613 5608 5602 5596 5592 5585 5578 5575 5570 5561 5554 5546 5537 5528 5520 5515 5505 5496 5488 5480 5474 5467 5458
5663 5661 5655 5647 5640 5633 5627 5623 5619 5614 5609 5602 5598 5592 5583 5577 5572 5566 5561 5552 5540 5529 5520 5515 5507 5501 5490 5482 5473 5465 5455 5445
5664 5660 5656 5650 5643 5636 5629 5623 5618 5614 5609 5602 5595 5587 5580 5574 5567 5560 5550 5539 5530 5520 5512 5502 5497 5489 5482 5473 5464 5454 5443 5433
5662 5659 5656 5652 5645 5639 5631 5624 5620 5613 5607 5602 5594 5585 5577 5568 5558 5551 5540 5530 5520 5510 5500 5495 5481 5477 5471 5462 5451 5441 5431 5422
5659 5657 5654 5649 5644 5639 5630 5622 5615 5610 5604 5596 5588 5579 5570 5559 5552 5542 5533 5523 5514 5505 5496 5488 5476 5469 5459 5448 5439 5429 5420 5411
5657 5654 5650 5646 5641 5634 5624 5614 5609 5605 5596 5587 5578 5569 5560 5551 5542 5535 5523 5515 5507 5498 5489 5480 5468 5456 5445 5436 5428 5419 5410 5400
5650 5646 5644 5640 5634 5626 5616 5609 5601 5594 5586 5576 5566 5557 5548 5544 5532 5523 5512 5501 5493 5484 5479 5467 5456 5445 5435 5426 5417 5408 5399 5388
5646 5643 5638 5631 5625 5617 5610 5602 5592 5582 5575 5564 5553 5543 5534 5525 5510 5503 5498 5490 5480 5466 5461 5452 5442 5433 5424 5415 5406 5396 5386 5377
5637 5634 5628 5620 5612 5606 5599 5590 5579 5570 5560 5550 5537 5528 5521 5511 5497 5486 5483 5476 5468 5457 5449 5438 5428 5420 5411 5402 5393 5384 5375 5365
5630 5623 5615 5607 5599 5592 5581 5573 5564 5557 5547 5535 5523 5514 5508 5501 5490 5480 5472 5464 5455 5445 5437 5425 5415 5406 5398 5389 5380 5374 5364 5354
5619 5613 5606 5595 5587 5579 5570 5562 5554 5545 5532 5520 5512 5504 5496 5487 5478 5468 5460 5450 5444 5433 5423 5414 5405 5396 5386 5377 5368 5361 5354 5344
5603 5599 5591 5584 5577 5569 5559 5550 5541 5531 5520 5509 5499 5491 5481 5472 5464 5454 5445 5438 5429 5421 5413 5403 5394 5384 5374 5364 5355 5347 5340 5332